Orlando, FL

2:50 AM EST on February 25, 2017 (GMT -0500)
Orlando International

Weather History for KMCO - July, 2012

Change the Weather History Date:

Sunday, July 29, 2012

  Actual Average Record
Temperature  
Mean Temperature 85 °F 83 °F  
Max Temperature 95 °F 92 °F 99 °F (1949)
Min Temperature 75 °F 74 °F 66 °F (1893)
Degree Days  
Heating Degree Days 0 0  
Month to date heating degree days 0 0  
Since 1 June heating degree days 0 0  
Since 1 July heating degree days 0 0  
Cooling Degree Days 20 18  
Month to date cooling degree days 529 514  
Year to date cooling degree days 2020 1805  
Since 1 June cooling degree days 981 1004  
Growing Degree Days 35 (Base 50)    
Moisture  
Dew Point 72 °F    
Average Humidity 67    
Maximum Humidity 94    
Minimum Humidity 39    
Precipitation  
Precipitation 0.00 in 0.24 in 2.76 in (1918)
Month to date precipitation 2.90 6.81  
Year to date precipitation 21.91 29.02  
Sea Level Pressure  
Sea Level Pressure 30.04 in    
Wind  
Wind Speed 6 mph (SW)    
Max Wind Speed 15 mph    
Max Gust Speed 28 mph    
Visibility 10 miles    
Events      
T = Trace of Precipitation, MM = Missing Value Source: NWS Daily Summary

Daily Weather History Graph

Daily Weather History Graph

Search for Another Location

Airport or City:

Trip Planner

Search our weather history database for the weather conditions in past years. The results will help you decide how hot, cold, wet, or windy it might be!

Date:

Astronomy

Jul. 29, 2012 Rise Set
Actual Time 6:45 AM EDT 8:17 PM EDT
Civil Twilight 6:20 AM EDT 8:42 PM EDT
Nautical Twilight 5:49 AM EDT 9:13 PM EDT
Astronomical Twilight 5:17 AM EDT 9:45 PM EDT
Moon 5:17 PM EDT (7/29) 3:03 AM EDT (7/29)
Length of Visible Light 14h 22m
Length of Day
13h 31m
Waxing Gibbous, 85% of the Moon is Illuminated
Jul 29
Waxing Gibbous
Aug 1
Full
Aug 9
Last Quarter
Aug 17
New
Aug 24
First Quarter

Hourly Weather History & Observations

Time (EDT) Temp. Heat Index Dew Point Humidity Pressure Visibility Wind Dir Wind Speed Gust Speed Precip Events Conditions
12:53 AM 79.0 °F - 73.9 °F 84% 30.05 in 10.0 mi South 5.8 mph - N/A   Clear
1:53 AM 77.0 °F - 73.9 °F 90% 30.04 in 10.0 mi South 4.6 mph - N/A   Clear
2:53 AM 77.0 °F - 73.9 °F 90% 30.03 in 10.0 mi South 3.5 mph - N/A   Clear
3:53 AM 79.0 °F - 73.0 °F 82% 30.03 in 10.0 mi SW 4.6 mph - N/A   Clear
4:53 AM 77.0 °F - 73.0 °F 88% 30.04 in 10.0 mi Calm Calm - N/A   Clear
5:53 AM 75.9 °F - 73.0 °F 91% 30.05 in 10.0 mi SW 3.5 mph - N/A   Clear
6:53 AM 75.9 °F - 73.0 °F 91% 30.06 in 10.0 mi Calm Calm - N/A   Scattered Clouds
7:53 AM 78.1 °F - 75.0 °F 90% 30.07 in 10.0 mi Calm Calm - N/A   Mostly Cloudy
8:53 AM 82.9 °F 90.8 °F 75.9 °F 79% 30.08 in 10.0 mi Calm Calm - N/A   Scattered Clouds
9:53 AM 84.9 °F 92.1 °F 73.9 °F 69% 30.08 in 10.0 mi SSW 4.6 mph - N/A   Mostly Cloudy
10:53 AM 87.1 °F 94.5 °F 73.0 °F 63% 30.08 in 10.0 mi South 4.6 mph - N/A   Partly Cloudy
11:53 AM 88.0 °F 95.6 °F 73.0 °F 61% 30.09 in 10.0 mi Variable 6.9 mph - N/A   Scattered Clouds
12:53 PM 90.0 °F 97.9 °F 73.0 °F 57% 30.07 in 10.0 mi SW 9.2 mph - N/A   Scattered Clouds
1:53 PM 90.0 °F 96.9 °F 72.0 °F 55% 30.05 in 10.0 mi SW 5.8 mph - N/A   Scattered Clouds
2:53 PM 91.0 °F 96.6 °F 70.0 °F 50% 30.03 in 10.0 mi SSW 11.5 mph - N/A   Partly Cloudy
3:53 PM 93.9 °F 99.1 °F 69.1 °F 44% 30.00 in 10.0 mi Variable 5.8 mph - N/A   Partly Cloudy
4:53 PM 93.9 °F 98.6 °F 68.0 °F 43% 29.98 in 10.0 mi SSW 11.5 mph - N/A   Partly Cloudy
5:53 PM 93.0 °F 95.0 °F 64.9 °F 39% 29.99 in 10.0 mi WSW 11.5 mph 17.3 mph N/A   Partly Cloudy
6:53 PM 91.9 °F 95.4 °F 66.9 °F 44% 29.98 in 10.0 mi WSW 10.4 mph - N/A   Partly Cloudy
7:53 PM 89.1 °F 92.9 °F 68.0 °F 50% 30.01 in 10.0 mi WSW 8.1 mph - N/A   Partly Cloudy
8:53 PM 87.1 °F 93.6 °F 72.0 °F 61% 30.03 in 10.0 mi West 10.4 mph - N/A   Partly Cloudy
9:53 PM 84.9 °F 90.7 °F 72.0 °F 65% 30.04 in 10.0 mi West 6.9 mph - N/A   Mostly Cloudy
10:53 PM 84.0 °F 91.2 °F 73.9 °F 72% 30.05 in 10.0 mi West 5.8 mph - N/A   Partly Cloudy
11:53 PM 82.0 °F 87.9 °F 73.9 °F 76% 30.05 in 10.0 mi WSW 5.8 mph - N/A   Partly Cloudy